Location: Melizzano
(41.1500°N, 14.5000°E)
Time: 03:02:56
(UTC+00:00)

Iridium 4 Rocket - Pass Details

Date: 11 May 2021
Orbit: 583 x 906 km, 86.9° (Epoch: 14 June)

Event Time Altitude Azimuth Distance (km) Brightness Sun altitude
Exits shadow 19:51:14 26° 126° (SE) 1,661 4.6 -16.6°
Maximum altitude 19:53:35 36° 83° (E) 1,371 4.5 -16.9°
Drops below altitude 10° 19:58:55 10° 19° (NNE) 2,594 6.6 -17.6°
Sets 20:01:34 0° 11° (N) 3,541 7.4 -18.0°
